sat.trackr.live / text

‹ back to catalog

STARLINK-36648

NORAD 67825 · 2026-033E

PAYLOAD ACTIVE UNKNOWN

§ Identity

Operator
Country
US
Launch date
2026-02-16
Launch site
AFETR
Launch vehicle
Mass (kg)
RCS (m²)

Purposes: comms

External: N2YO · Heavens-Above · Gunter

§ Orbital elements

Epoch: 2026-09-19T08:01:17.259456Z

Period
94.27 min
Inclination
42.9981°
Eccentricity
0.0001288
Mean motion
15.27588794 rev/d
Perigee alt
482.1 km
Apogee alt
483.9 km
Semi-major
6,861.2 km
B*
4.7578e-4
RAAN
253.0751°
Arg perigee
287.4513°
Mean anomaly
72.6198°
Rev number
3,429

§ Raw data

STARLINK-366481 67825U 26033E   26262.33422754  .00012857  00000+0  47578-3 0  99962 67825  42.9981 253.0751 0001288 287.4513  72.6198 15.27588794 34292

JSON: /api/v1/satellites/67825 · /tle

For live sub-satellite position, see the globe view (requires WebGL).

§ Visibility from observer

Set your observer location to see the next 7 days of passes ≥ 10°. The values pass through the URL so the page stays shareable.

No JS? Fill the form by hand. The geolocation button needs JavaScript.